Location: Arborea
(39.7744°N, 8.5819°E)
Time: 02:26:05
(UTC+00:00)

USA 229 - Pass Details

Date: 04 June 2022
Orbit: 938 x 1274 km, 63.4° (Epoch: 24 May)

Event Time Altitude Azimuth Distance (km) Brightness Sun altitude
Rises 19:25:56 0° 329° (NNW) 3,909 8.1 -6.6°
Reaches altitude 10° 19:29:49 10° 350° (N) 3,020 6.8 -7.2°
Maximum altitude 19:34:11 17° 28° (NNE) 2,629 5.9 -7.9°
Drops below altitude 10° 19:38:43 10° 65° (ENE) 3,158 5.9 -8.6°
Sets 19:42:54 0° 85° (E) 4,172 6.4 -9.2°
